Fort Dodge
Saturday 9:56 PM
Temperature32° (47°/20°)
Dew Point27°
Feels Like26°
Relative Humidity82
%
Visibility10
mi
Pressure1020.7
mb
Wind DirectionENE
70°
Wind Speed6
mph
Precipitation Today0.00"

Last 30 Observations

Time PresWx Temp DP Feels RH% Vsby Pressure Ceiling Direction Speed 1h Precip
9:56 PM 32° 27° 26°81
%
10
mi
1020.7
mb
ENE
70°
6
mph
0.00"
8:56 PM 35° 28° 30°75
%
10
mi
1020.7
mb
E
80°
6
mph
0.00"
7:56 PM 39° 29° 36°67
%
10
mi
1020.7
mb
E
80°
5
mph
0.00"
6:56 PM 45° 27° 41°49
%
10
mi
1020.7
mb
E
80°
7
mph
0.00"
5:56 PM 46° 27° 44°47
%
10
mi
1020.7
mb
SE
130°
5
mph
0.00"
4:56 PM 47° 26° 43°44
%
10
mi
1020.7
mb
E
80°
9
mph
0.00"
3:56 PM 45° 27° 41°49
%
10
mi
1021.7
mb
ESE
110°
7
mph
0.00"
2:56 PM 43° 28° 38°55
%
10
mi
1022.4
mb
ENE
60°
9
mph
0.00"
1:56 PM 40° 25° 33°55
%
10
mi
1023.4
mb
E
80°
10
mph
0.00"
12:56 PM 37° 23° 32°56
%
10
mi
1024.4
mb
Variable 7
mph
0.00"
11:56 AM 34° 24° 27°67
%
10
mi
1024.7
mb
NNE
20°
8
mph
0.00"
10:56 AM 33° 21° 25°61
%
10
mi
1025.1
mb
NNE
30°
10
mph
0.00"
9:56 AM 30° 22° 24°71
%
10
mi
1025.7
mb
NNE
20°
6
mph
0.00"
8:56 AM 27° 20° 20°75
%
10
mi
1025.4
mb
NNE
30°
6
mph
0.00"
7:56 AM 22° 19° 13°88
%
10
mi
1025.4
mb
N
10°
7
mph
0.00"
6:56 AM 21° 18° 15°88
%
10
mi
1024.7
mb
N
360°
5
mph
0.00"
5:56 AM 21° 19° 15°92
%
10
mi
1024.4
mb
N
350°
5
mph
0.00"
4:56 AM 22° 20° 16°92
%
10
mi
1024.7
mb
NNW
340°
5
mph
0.00"
3:56 AM 23° 20° 17°88
%
10
mi
1025.1
mb
N
350°
5
mph
0.00"
2:56 AM 25° 21° 16°85
%
10
mi
1024.7
mb
1,200
ft
N
350°
8
mph
0.00"
1:56 AM 26° 22° 19°84
%
10
mi
1024.7
mb
1,200
ft
NNW
330°
6
mph
0.00"
12:56 AM 26° 22° 16°84
%
10
mi
1024.4
mb
1,400
ft
NNW
340°
10
mph
0.00"
11:56 PM 27° 23° 19°85
%
10
mi
1024.4
mb
1,400
ft
N
350°
8
mph
0.00"
10:56 PM 28° 24° 19°85
%
10
mi
1024.4
mb
NNW
340°
10
mph
(G16)
0.00"
9:56 PM 28° 24° 17°85
%
10
mi
1024.4
mb
1,400
ft
N
350°
13
mph
0.00"
9:43 PM 28° 25° 19°86
%
10
mi
1024.4
mb
1,400
ft
N
360°
10
mph
0.00"
8:56 PM 29° 25° 22°85
%
10
mi
1023.7
mb
1,600
ft
N
350°
7
mph
0.00"
7:56 PM 30° 25° 20°81
%
10
mi
1023.0
mb
1,800
ft
N
360°
13
mph
(G18)
0.00"
6:56 PM 31° 25° 23°78
%
10
mi
1022.7
mb
1,800
ft
N
350°
9
mph
0.00"
5:56 PM 31° 26° 22°82
%
10
mi
1022.4
mb
1,600
ft
N
350°
10
mph
0.00"